星链-2372 (STARLINK-2372 )

导读 | 星芒AI

STARLINK-2372 是 SpaceX Starlink 项目中的一颗低轨通信卫星,属于第二代 Starlink 卫星星座的一部分。该卫星旨在为全球用户提供高速、低延迟的互联网服务,尤其关注偏远和网络基础设施薄弱的地区。它搭载了先进通信设备,支持宽带数据传输,并具备星间通信能力,以提升网络效率和覆盖范围。STARLINK-2372 于近期成功发射并进入预定轨道,为 Starlink 网络的扩展和性能优化做出贡献。

基本信息
目录编号:
47912
目录名称:
STARLINK-2372
国际标识:
2021-021BE
轨道中心:
EARTH
卫星名称:
星链-2372
卫星全名:
星链-2372 (STARLINK-2372 )
卫星状态:
已陨落 最后检测时间 2025-03-07
发射日期:
2021-03-14 UTC
国别 :
美国 (US)
星等 :
--
轨道信息
数据来源 国际轨道数据
星历时间: 2025-03-06T22:06:57+0800
轨道信息已过期285天
半长轴: 6566.39km
偏心率: 0.0001081
轨道倾角: 53.028°
近地点辐角 93.621°
升交点赤经 75.287°
平近点角 7.961°
近地点: 187.545km
远地点: 188.965km
周期: 88.257分钟
每日圈数: 16.315967
详细信息
固有亮度:
5
最大亮度:
2.5
卫星平台:
Starlink V1.0
覆盖范围:
全球
运营商:
太空探索技术公司
运营商所在国:
美国
制造商(研发单位):
太空探索技术公司
制造商所在国:
美国
使用方式:
暂无
卫星简介
星链(Starlink)计划是由太空探索技术公司(SpaceX)提出的一个巨型低轨卫星互联网星座项目,计划在2019年至2024年间在太空搭建由约1.2万颗卫星组成的“星链”网络,其中1584颗将部署在地球上空550千米处的近地轨道,并从2020年开始工作。该卫星仍在工作。